Regional Weather Roundup
Issued by NWS Green Bay, WI

Home | Current Version | Previous Version | Text Only | Print | Product List | Glossary On
Versions: 1 2 3 4 5 6 7 8 9 10 11 12 13 14 15 16 17 18 19 20 21 22 23 24 25 26 27 28 29 30 31 32 33 34 35 36 37 38 39 40 41 42 43 44 45 46 47 48 49 50
783
ASUS43 KGRB 251911
RWRGRB

NORTH-CENTRAL AND NORTHEAST WISCONSIN REGIONAL WEATHER ROUNDUP
NATIONAL WEATHER SERVICE GREEN BAY WI
200 PM CDT WED MAY 25 2016

WIZ005-009-010>012-018-019-252000-
NORTH CENTRAL WISCONSIN

CITY           SKY/WX    TMP DP  RH WIND       PRES   REMARKS
IRONWOOD       CLOUDY    73  57  56 E10       29.93F
MANITOWISH WTR NOT AVBL
ARBOR VITAE    PTSUNNY   77  56  48 SE13G18   29.98F
EAGLE RIVER      N/A     74  51  44 SE10      29.99F
LAND O LAKES   MOSUNNY   73  55  51 SE9       30.01F
RHINELANDER    MOSUNNY   76  56  49 SE12      29.99F
PHILLIPS       CLOUDY    76  59  56 E12       29.94F
ANTIGO         SUNNY     74  61  64 SE13      29.99F
TOMAHAWK       MOSUNNY   77  59  55 SE7       29.96F
MERRILL        MOSUNNY   75  61  62 SE12      29.96F
$$

WIZ013-073-252000-
NORTHEAST WISCONSIN

CITY           SKY/WX    TMP DP  RH WIND       PRES   REMARKS
IRON MOUNTAIN  PTSUNNY   70  57  63 VRB5      30.03S
MARINETTE      MOSUNNY   61  55  82 E14       30.04F
OCONTO         SUNNY     68  58  69 E10G16    30.01F
$$

WIZ017-030-035>037-045-252000-
CENTRAL WISCONSIN

CITY           SKY/WX    TMP DP  RH WIND       PRES   REMARKS
MEDFORD        MOSUNNY   75  61  61 E8G16     29.93F
WAUSAU         MOSUNNY   76  59  55 E15G24    29.93F
MOSINEE        MOSUNNY   72  61  68 E12G20    29.96F
MARSHFIELD     SUNNY     77  61  57 E16       29.92F
WISC RAPIDS    MOSUNNY   79  59  50 E15       29.92F
STEVENS POINT  SUNNY     74  59  59 E17       29.94F
WAUPACA        MOSUNNY   78  59  50 E12G18    29.96F
SHAWANO        PTSUNNY   77  60  56 E13       29.99F
CLINTONVILLE   PTSUNNY   73  57  56 E12G18    29.98F
WAUTOMA        PTSUNNY   77  61  57 E17G23    29.93F
$$

WIZ038-039-048-051-252000-
FOX VALLEY

CITY           SKY/WX    TMP DP  RH WIND       PRES   REMARKS
NWS GREEN BAY  MOSUNNY   68  59  73 NE13      30.00F
APPLETON       PTSUNNY   73  57  56 NE10G17   29.96F
OSHKOSH        SUNNY     75  61  61 E14G20    29.95F
FOND DU LAC    SUNNY     79  61  53 E10       29.94F
$$

WIZ022-050-052-252000-
EAST CENTRAL WISCONSIN

CITY           SKY/WX    TMP DP  RH WIND       PRES   REMARKS
EPHRAIM        MOCLDY    62  57  83 NE10      30.04S
STURGEON BAY   NOT AVBL
MANITOWOC      PTSUNNY   60  55  83 NE10G18   30.02F
SHEBOYGAN      SUNNY     63  55  75 NE14      30.00F
$$

LMZ563-521-522-541>543-252000-
LAKESHORE

STATION/POSITION TIME  TEMP    WIND        PRES    VSBY  WAVE
                       AIR SEA DIR/SP/G                  HT/PER
                 (UTC) (F)     (DEG/KT/KT) (MB)    (MI)  (FT/S)
SHEBOYGAN LKSHOR 1900   49      20/ 12/ 13 1016.6F
KEWAUNEE LKSHORE 1800   51      30/  7/  9 1016.8F
NORTHPORT PIER   1800   58      70/  8/ 15 1017.9F
N MID LAKE BUOY  1850   49 45   20/ 10/ 12 1017.2F         0
SISTER BAY LKSHO 1820   66      20/  8/ 11   N/A
CHAMBERS ISLAND  1800   55      20/ 10/ 11 1017.6F
MENOMINEE LKSHOR 1800   55      30/ 10/ 11 1016.5F
$$




USA.gov is the U.S. government's official web portal to all federal, state and local government web resources and services.